Year,Month,Day,Hour,Minute,Value (Times are PST for temperature in C)
2010,01,22,00,00,1.90
2010,01,22,00,01,1.90
2010,01,22,00,02,1.80
2010,01,22,00,03,1.80
2010,01,22,00,04,1.80
2010,01,22,00,05,1.80
2010,01,22,00,06,1.80
2010,01,22,00,07,1.80
2010,01,22,00,08,1.80
2010,01,22,00,09,1.80
2010,01,22,00,10,1.80
2010,01,22,00,11,1.80
2010,01,22,00,12,1.80
2010,01,22,00,13,1.80
2010,01,22,00,14,1.70
2010,01,22,00,15,1.70
2010,01,22,00,16,1.70
2010,01,22,00,17,1.60
2010,01,22,00,18,1.60
2010,01,22,00,19,1.60
2010,01,22,00,20,1.60
2010,01,22,00,21,1.60
2010,01,22,00,22,1.50
2010,01,22,00,23,1.50
2010,01,22,00,24,1.50
2010,01,22,00,25,1.50
2010,01,22,00,26,1.40
2010,01,22,00,27,1.40
2010,01,22,00,28,1.40
2010,01,22,00,29,1.40
2010,01,22,00,30,1.40
2010,01,22,00,31,1.40
2010,01,22,00,32,1.40
2010,01,22,00,33,1.40
2010,01,22,00,34,1.40
2010,01,22,00,35,1.40
2010,01,22,00,36,1.40
2010,01,22,00,37,1.30
2010,01,22,00,38,1.30
2010,01,22,00,39,1.30
2010,01,22,00,40,1.30
2010,01,22,00,41,1.30
2010,01,22,00,42,1.30
2010,01,22,00,43,1.30
2010,01,22,00,44,1.30
2010,01,22,00,45,1.30
2010,01,22,00,46,1.30
2010,01,22,00,47,1.30
2010,01,22,00,48,1.30
2010,01,22,00,49,1.30
2010,01,22,00,50,1.30
2010,01,22,00,51,1.30
2010,01,22,00,52,1.30
2010,01,22,00,53,1.30
2010,01,22,00,54,1.30
2010,01,22,00,55,1.20
2010,01,22,00,56,1.20
2010,01,22,00,57,1.20
2010,01,22,00,58,1.20
2010,01,22,00,59,1.20
2010,01,22,01,00,1.20
2010,01,22,01,01,1.20
2010,01,22,01,02,1.20
2010,01,22,01,03,1.10
2010,01,22,01,04,1.10
2010,01,22,01,05,1.10
2010,01,22,01,06,1.10
2010,01,22,01,07,1.10
2010,01,22,01,08,1.10
2010,01,22,01,09,1.10
2010,01,22,01,10,1.10
2010,01,22,01,11,1.10
2010,01,22,01,12,1.10
2010,01,22,01,13,1.10
2010,01,22,01,14,1.10
2010,01,22,01,15,1.10
2010,01,22,01,16,1.10
2010,01,22,01,17,1.10
2010,01,22,01,18,1.10
2010,01,22,01,19,1.00
2010,01,22,01,20,1.10
2010,01,22,01,21,1.10
2010,01,22,01,22,1.10
2010,01,22,01,23,1.10
2010,01,22,01,24,1.10
2010,01,22,01,25,1.10
2010,01,22,01,26,1.10
2010,01,22,01,27,1.10
2010,01,22,01,28,1.10
2010,01,22,01,29,1.10
2010,01,22,01,30,1.10
2010,01,22,01,31,1.10
2010,01,22,01,32,1.20
2010,01,22,01,33,1.20
2010,01,22,01,34,1.20
2010,01,22,01,35,1.20
2010,01,22,01,36,1.20
2010,01,22,01,37,1.10
2010,01,22,01,38,1.10
2010,01,22,01,39,1.10
2010,01,22,01,40,1.10
2010,01,22,01,41,1.00
2010,01,22,01,42,1.00
2010,01,22,01,43,0.90
2010,01,22,01,44,0.90
2010,01,22,01,45,0.90
2010,01,22,01,46,0.90
2010,01,22,01,47,0.90
2010,01,22,01,48,0.90
2010,01,22,01,49,0.90
2010,01,22,01,50,0.90
2010,01,22,01,51,0.90
2010,01,22,01,52,0.90
2010,01,22,01,53,1.00
2010,01,22,01,54,1.00
2010,01,22,01,55,1.00
2010,01,22,01,56,1.00
2010,01,22,01,57,1.00
2010,01,22,01,58,1.00
2010,01,22,01,59,1.00
2010,01,22,02,00,1.00
2010,01,22,02,01,1.10
2010,01,22,02,02,1.10
2010,01,22,02,03,1.10
2010,01,22,02,04,1.10
2010,01,22,02,05,1.10
2010,01,22,02,06,1.10
2010,01,22,02,07,1.10
2010,01,22,02,08,1.00
2010,01,22,02,09,1.00
2010,01,22,02,10,1.00
2010,01,22,02,11,1.00
2010,01,22,02,12,1.00
2010,01,22,02,13,1.00
2010,01,22,02,14,0.90
2010,01,22,02,15,0.90
2010,01,22,02,16,0.90
2010,01,22,02,17,0.90
2010,01,22,02,18,0.90
2010,01,22,02,19,0.90
2010,01,22,02,20,0.90
2010,01,22,02,21,0.90
2010,01,22,02,22,0.90
2010,01,22,02,23,0.90
2010,01,22,02,24,0.90
2010,01,22,02,25,0.90
2010,01,22,02,26,0.90
2010,01,22,02,27,0.90
2010,01,22,02,28,0.90
2010,01,22,02,29,0.90
2010,01,22,02,30,0.90
2010,01,22,02,31,0.80
2010,01,22,02,32,0.80
2010,01,22,02,33,0.80
2010,01,22,02,34,0.80
2010,01,22,02,35,0.80
2010,01,22,02,36,0.80
2010,01,22,02,37,0.80
2010,01,22,02,38,0.80
2010,01,22,02,39,0.80
2010,01,22,02,40,0.80
2010,01,22,02,41,0.80
2010,01,22,02,42,0.80
2010,01,22,02,43,0.80
2010,01,22,02,44,0.80
2010,01,22,02,45,0.80
2010,01,22,02,46,0.80
2010,01,22,02,47,0.80
2010,01,22,02,48,0.80
2010,01,22,02,49,0.80
2010,01,22,02,50,0.90
2010,01,22,02,51,0.90
2010,01,22,02,52,0.90
2010,01,22,02,53,0.90
2010,01,22,02,54,0.90
2010,01,22,02,55,0.90
2010,01,22,02,56,0.90
2010,01,22,02,57,0.80
2010,01,22,02,58,0.80
2010,01,22,02,59,0.80
2010,01,22,03,00,0.80
2010,01,22,03,01,0.80
2010,01,22,03,02,0.80
2010,01,22,03,03,0.80
2010,01,22,03,04,0.80
2010,01,22,03,05,0.80
2010,01,22,03,06,0.80
2010,01,22,03,07,0.80
2010,01,22,03,08,0.80
2010,01,22,03,09,0.80
2010,01,22,03,10,0.70
2010,01,22,03,11,0.70
2010,01,22,03,12,0.70
2010,01,22,03,13,0.70
2010,01,22,03,14,0.70
2010,01,22,03,15,0.70
2010,01,22,03,16,0.70
2010,01,22,03,17,0.70
2010,01,22,03,18,0.70
2010,01,22,03,19,0.70
2010,01,22,03,20,0.70
2010,01,22,03,21,0.70
2010,01,22,03,22,0.70
2010,01,22,03,23,0.70
2010,01,22,03,24,0.70
2010,01,22,03,25,0.70
2010,01,22,03,26,0.70
2010,01,22,03,27,0.70
2010,01,22,03,28,0.70
2010,01,22,03,29,0.70
2010,01,22,03,30,0.70
2010,01,22,03,31,0.70
2010,01,22,03,32,0.70
2010,01,22,03,33,0.80
2010,01,22,03,34,0.80
2010,01,22,03,35,0.80
2010,01,22,03,36,0.90
2010,01,22,03,37,1.00
2010,01,22,03,38,1.00
2010,01,22,03,39,1.00
2010,01,22,03,40,1.10
2010,01,22,03,41,1.10
2010,01,22,03,42,1.10
2010,01,22,03,43,1.10
2010,01,22,03,44,1.10
2010,01,22,03,45,1.10
2010,01,22,03,46,1.10
2010,01,22,03,47,1.10
2010,01,22,03,48,1.10
2010,01,22,03,49,1.00
2010,01,22,03,50,1.00
2010,01,22,03,51,1.10
2010,01,22,03,52,1.10
2010,01,22,03,53,1.10
2010,01,22,03,54,1.10
2010,01,22,03,55,1.10
2010,01,22,03,56,1.00
2010,01,22,03,57,1.00
2010,01,22,03,58,1.00
2010,01,22,03,59,1.00
2010,01,22,04,00,0.90
2010,01,22,04,01,0.90
2010,01,22,04,02,0.90
2010,01,22,04,03,0.90
2010,01,22,04,04,0.90
2010,01,22,04,05,0.90
2010,01,22,04,06,0.90
2010,01,22,04,07,0.90
2010,01,22,04,08,0.90
2010,01,22,04,09,0.90
2010,01,22,04,10,0.90
2010,01,22,04,11,0.90
2010,01,22,04,12,0.90
2010,01,22,04,13,1.00
2010,01,22,04,14,1.00
2010,01,22,04,15,1.10
2010,01,22,04,16,1.10
2010,01,22,04,17,1.10
2010,01,22,04,18,1.10
2010,01,22,04,19,1.10
2010,01,22,04,20,1.10
2010,01,22,04,21,1.20
2010,01,22,04,22,1.20
2010,01,22,04,23,1.20
2010,01,22,04,24,1.30
2010,01,22,04,25,1.30
2010,01,22,04,26,1.30
2010,01,22,04,27,1.30
2010,01,22,04,28,1.30
2010,01,22,04,29,1.30
2010,01,22,04,30,1.30
2010,01,22,04,31,1.30
2010,01,22,04,32,1.30
2010,01,22,04,33,1.30
2010,01,22,04,34,1.30
2010,01,22,04,35,1.30
2010,01,22,04,36,1.30
2010,01,22,04,37,1.30
2010,01,22,04,38,1.30
2010,01,22,04,39,1.30
2010,01,22,04,40,1.30
2010,01,22,04,41,1.30
2010,01,22,04,42,1.30
2010,01,22,04,43,1.30
2010,01,22,04,44,1.30
2010,01,22,04,45,1.30
2010,01,22,04,46,1.30
2010,01,22,04,47,1.30
2010,01,22,04,48,1.30
2010,01,22,04,49,1.30
2010,01,22,04,50,1.30
2010,01,22,04,51,1.30
2010,01,22,04,52,1.30
2010,01,22,04,53,1.30
2010,01,22,04,54,1.30
2010,01,22,04,55,1.30
2010,01,22,04,56,1.30
2010,01,22,04,57,1.30
2010,01,22,04,58,1.30
2010,01,22,04,59,1.30
2010,01,22,05,00,1.30
2010,01,22,05,01,1.30
2010,01,22,05,02,1.30
2010,01,22,05,03,1.30
2010,01,22,05,04,1.30
2010,01,22,05,05,1.30
2010,01,22,05,06,1.30
2010,01,22,05,07,1.30
2010,01,22,05,08,1.30
2010,01,22,05,09,1.20
2010,01,22,05,10,1.30
2010,01,22,05,11,1.30
2010,01,22,05,12,1.30
2010,01,22,05,13,1.30
2010,01,22,05,14,1.30
2010,01,22,05,15,1.30
2010,01,22,05,16,1.30
2010,01,22,05,17,1.30
2010,01,22,05,18,1.30
2010,01,22,05,19,1.40
2010,01,22,05,20,1.40
2010,01,22,05,21,1.40
2010,01,22,05,22,1.40
2010,01,22,05,23,1.40
2010,01,22,05,24,1.40
2010,01,22,05,25,1.40
2010,01,22,05,26,1.40
2010,01,22,05,27,1.40
2010,01,22,05,28,1.40
2010,01,22,05,29,1.40
2010,01,22,05,30,1.40
2010,01,22,05,31,1.40
2010,01,22,05,32,1.40
2010,01,22,05,33,1.40
2010,01,22,05,34,1.40
2010,01,22,05,35,1.40
2010,01,22,05,36,1.40
2010,01,22,05,37,1.40
2010,01,22,05,38,1.50
2010,01,22,05,39,1.50
2010,01,22,05,40,1.50
2010,01,22,05,41,1.50
2010,01,22,05,42,1.50
2010,01,22,05,43,1.50
2010,01,22,05,44,1.40
2010,01,22,05,45,1.40
2010,01,22,05,46,1.40
2010,01,22,05,47,1.30
2010,01,22,05,48,1.30
2010,01,22,05,49,1.30
2010,01,22,05,50,1.30
2010,01,22,05,51,1.30
2010,01,22,05,52,1.40
2010,01,22,05,53,1.40
2010,01,22,05,54,1.40
2010,01,22,05,55,1.40
2010,01,22,05,56,1.40
2010,01,22,05,57,1.40
2010,01,22,05,58,1.50
2010,01,22,05,59,1.50
2010,01,22,06,00,1.50
2010,01,22,06,01,1.50
2010,01,22,06,02,1.60
2010,01,22,06,03,1.60
2010,01,22,06,04,1.60
2010,01,22,06,05,1.60
2010,01,22,06,06,1.60
2010,01,22,06,07,1.70
2010,01,22,06,08,1.70
2010,01,22,06,09,1.70
2010,01,22,06,10,1.80
2010,01,22,06,11,1.80
2010,01,22,06,12,1.80
2010,01,22,06,13,1.80
2010,01,22,06,14,1.80
2010,01,22,06,15,1.90
2010,01,22,06,16,1.90
2010,01,22,06,17,1.90
2010,01,22,06,18,1.90
2010,01,22,06,19,2.00
2010,01,22,06,20,2.00
2010,01,22,06,21,2.10
2010,01,22,06,22,2.10
2010,01,22,06,23,2.20
2010,01,22,06,24,2.20
2010,01,22,06,25,2.20
2010,01,22,06,26,2.30
2010,01,22,06,27,2.30
2010,01,22,06,28,2.30
2010,01,22,06,29,2.40
2010,01,22,06,30,2.40
2010,01,22,06,31,2.40
2010,01,22,06,32,2.40
2010,01,22,06,33,2.40
2010,01,22,06,34,2.30
2010,01,22,06,35,2.30
2010,01,22,06,36,2.30
2010,01,22,06,37,2.30
2010,01,22,06,38,2.30
2010,01,22,06,39,2.30
2010,01,22,06,40,2.30
2010,01,22,06,41,2.40
2010,01,22,06,42,2.40
2010,01,22,06,43,2.40
2010,01,22,06,44,2.40
2010,01,22,06,45,2.40
2010,01,22,06,46,2.40
2010,01,22,06,47,2.30
2010,01,22,06,48,2.30
2010,01,22,06,49,2.30
2010,01,22,06,50,2.20
2010,01,22,06,51,2.20
2010,01,22,06,52,2.20
2010,01,22,06,53,2.20
2010,01,22,06,54,2.20
2010,01,22,06,55,2.10
2010,01,22,06,56,2.10
2010,01,22,06,57,2.10
2010,01,22,06,58,2.10
2010,01,22,06,59,2.10
2010,01,22,07,00,2.10
2010,01,22,07,01,2.10
2010,01,22,07,02,2.10
2010,01,22,07,03,2.10
2010,01,22,07,04,2.10
2010,01,22,07,05,2.10
2010,01,22,07,06,2.10
2010,01,22,07,07,2.10
2010,01,22,07,08,2.10
2010,01,22,07,09,2.10
2010,01,22,07,10,2.10
2010,01,22,07,11,2.10
2010,01,22,07,12,2.10
2010,01,22,07,13,2.20
2010,01,22,07,14,2.20
2010,01,22,07,15,2.20
2010,01,22,07,16,2.20
2010,01,22,07,17,2.30
2010,01,22,07,18,2.30
2010,01,22,07,19,2.30
2010,01,22,07,20,2.30
2010,01,22,07,21,2.30
2010,01,22,07,22,2.30
2010,01,22,07,23,2.30
2010,01,22,07,24,2.30
2010,01,22,07,25,2.30
2010,01,22,07,26,2.30
2010,01,22,07,27,2.30
2010,01,22,07,28,2.20
2010,01,22,07,29,2.20
2010,01,22,07,30,2.20
2010,01,22,07,31,2.20
2010,01,22,07,32,2.20
2010,01,22,07,33,2.20
2010,01,22,07,34,2.10
2010,01,22,07,35,2.10
2010,01,22,07,36,2.10
2010,01,22,07,37,2.10
2010,01,22,07,38,2.10
2010,01,22,07,39,2.10
2010,01,22,07,40,2.10
2010,01,22,07,41,2.10
2010,01,22,07,42,2.10
2010,01,22,07,43,2.10
2010,01,22,07,44,2.00
2010,01,22,07,45,2.00
2010,01,22,07,46,2.00
2010,01,22,07,47,2.00
2010,01,22,07,48,2.00
2010,01,22,07,49,2.00
2010,01,22,07,50,2.00
2010,01,22,07,51,2.00
2010,01,22,07,52,2.10
2010,01,22,07,53,2.10
2010,01,22,07,54,2.10
2010,01,22,07,55,2.20
2010,01,22,07,56,2.20
2010,01,22,07,57,2.30
2010,01,22,07,58,2.30
2010,01,22,07,59,2.40
2010,01,22,08,00,2.40
2010,01,22,08,01,2.40
2010,01,22,08,02,2.50
2010,01,22,08,03,2.60
2010,01,22,08,04,2.60
2010,01,22,08,05,2.70
2010,01,22,08,06,2.70
2010,01,22,08,07,2.80
2010,01,22,08,08,2.80
2010,01,22,08,09,2.80
2010,01,22,08,10,2.80
2010,01,22,08,11,2.90
2010,01,22,08,12,2.90
2010,01,22,08,13,2.90
2010,01,22,08,14,2.90
2010,01,22,08,15,3.00
2010,01,22,08,16,3.00
2010,01,22,08,17,3.00
2010,01,22,08,18,3.00
2010,01,22,08,19,3.00
2010,01,22,08,20,3.00
2010,01,22,08,21,3.00
2010,01,22,08,22,3.10
2010,01,22,08,23,3.10
2010,01,22,08,24,3.10
2010,01,22,08,25,3.10
2010,01,22,08,26,3.10
2010,01,22,08,27,3.10
2010,01,22,08,28,3.10
2010,01,22,08,29,3.10
2010,01,22,08,30,3.10
2010,01,22,08,31,3.10
2010,01,22,08,32,3.10
2010,01,22,08,33,3.10
2010,01,22,08,34,3.10
2010,01,22,08,35,3.10
2010,01,22,08,36,3.20
2010,01,22,08,37,3.20
2010,01,22,08,38,3.20
2010,01,22,08,39,3.10
2010,01,22,08,40,3.10
2010,01,22,08,41,3.10
2010,01,22,08,42,3.10
2010,01,22,08,43,3.10
2010,01,22,08,44,3.20
2010,01,22,08,45,3.20
2010,01,22,08,46,3.20
2010,01,22,08,47,3.30
2010,01,22,08,48,3.30
2010,01,22,08,49,3.30
2010,01,22,08,50,3.40
2010,01,22,08,51,3.40
2010,01,22,08,52,3.40
2010,01,22,08,53,3.40
2010,01,22,08,54,3.50
2010,01,22,08,55,3.50
2010,01,22,08,56,3.60
2010,01,22,08,57,3.60
2010,01,22,08,58,3.60
2010,01,22,08,59,3.70
2010,01,22,09,00,3.70
2010,01,22,09,01,3.80
2010,01,22,09,02,3.80
2010,01,22,09,03,3.80
2010,01,22,09,04,3.90
2010,01,22,09,05,3.90
2010,01,22,09,06,3.90
2010,01,22,09,07,4.00
2010,01,22,09,08,4.00
2010,01,22,09,09,4.10
2010,01,22,09,10,4.10
2010,01,22,09,11,4.10
2010,01,22,09,12,4.10
2010,01,22,09,13,4.20
2010,01,22,09,14,4.20
2010,01,22,09,15,4.20
2010,01,22,09,16,4.20
2010,01,22,09,17,4.20
2010,01,22,09,18,4.30
2010,01,22,09,19,4.30
2010,01,22,09,20,4.30
2010,01,22,09,21,4.30
2010,01,22,09,22,4.30
2010,01,22,09,23,4.40
2010,01,22,09,24,4.40
2010,01,22,09,25,4.40
2010,01,22,09,26,4.40
2010,01,22,09,27,4.50
2010,01,22,09,28,4.50
2010,01,22,09,29,4.50
2010,01,22,09,30,4.60
2010,01,22,09,31,4.60
2010,01,22,09,32,4.60
2010,01,22,09,33,4.60
2010,01,22,09,34,4.60
2010,01,22,09,35,4.60
2010,01,22,09,36,4.70
2010,01,22,09,37,4.70
2010,01,22,09,38,4.70
2010,01,22,09,39,4.70
2010,01,22,09,40,4.70
2010,01,22,09,41,4.80
2010,01,22,09,42,4.80
2010,01,22,09,43,4.80
2010,01,22,09,44,4.80
2010,01,22,09,45,4.80
2010,01,22,09,46,4.90
2010,01,22,09,47,4.90
2010,01,22,09,48,4.90
2010,01,22,09,49,4.90
2010,01,22,09,50,5.00
2010,01,22,09,51,5.00
2010,01,22,09,52,5.00
2010,01,22,09,53,5.00
2010,01,22,09,54,5.00
2010,01,22,09,55,5.10
2010,01,22,09,56,5.10
2010,01,22,09,57,5.10
2010,01,22,09,58,5.10
2010,01,22,09,59,5.10
2010,01,22,10,00,5.10
2010,01,22,10,01,5.10
2010,01,22,10,02,5.10
2010,01,22,10,03,5.20
2010,01,22,10,04,5.20
2010,01,22,10,05,5.20
2010,01,22,10,06,5.20
2010,01,22,10,07,5.30
2010,01,22,10,08,5.30
2010,01,22,10,09,5.30
2010,01,22,10,10,5.40
2010,01,22,10,11,5.40
2010,01,22,10,12,5.50
2010,01,22,10,13,5.50
2010,01,22,10,14,5.60
2010,01,22,10,15,5.60
2010,01,22,10,16,5.70
2010,01,22,10,17,5.70
2010,01,22,10,18,5.70
2010,01,22,10,19,5.80
2010,01,22,10,20,5.80
2010,01,22,10,21,5.80
2010,01,22,10,22,5.90
2010,01,22,10,23,5.90
2010,01,22,10,24,5.90
2010,01,22,10,25,6.00
2010,01,22,10,26,6.00
2010,01,22,10,27,6.10
2010,01,22,10,28,6.20
2010,01,22,10,29,6.20
2010,01,22,10,30,6.20
2010,01,22,10,31,6.30
2010,01,22,10,32,6.30
2010,01,22,10,33,6.40
2010,01,22,10,34,6.40
2010,01,22,10,35,6.40
2010,01,22,10,36,6.50
2010,01,22,10,37,6.50
2010,01,22,10,38,6.60
2010,01,22,10,39,6.60
2010,01,22,10,40,6.70
2010,01,22,10,41,6.70
2010,01,22,10,42,6.70
2010,01,22,10,43,6.80
2010,01,22,10,44,6.80
2010,01,22,10,45,6.80
2010,01,22,10,46,6.80
2010,01,22,10,47,6.90
2010,01,22,10,48,6.90
2010,01,22,10,49,6.90
2010,01,22,10,50,6.90
2010,01,22,10,51,7.00
2010,01,22,10,52,7.00
2010,01,22,10,53,7.10
2010,01,22,10,54,7.10
2010,01,22,10,55,7.10
2010,01,22,10,56,7.20
2010,01,22,10,57,7.20
2010,01,22,10,58,7.20
2010,01,22,10,59,7.20
2010,01,22,11,00,7.20
2010,01,22,11,01,7.20
2010,01,22,11,02,7.20
2010,01,22,11,03,7.30
2010,01,22,11,04,7.30
2010,01,22,11,05,7.30
2010,01,22,11,06,7.40
2010,01,22,11,07,7.40
2010,01,22,11,08,7.40
2010,01,22,11,09,7.50
2010,01,22,11,10,7.50
2010,01,22,11,11,7.50
2010,01,22,11,12,7.60
2010,01,22,11,13,7.60
2010,01,22,11,14,7.60
2010,01,22,11,15,7.60
2010,01,22,11,16,7.70
2010,01,22,11,17,7.70
2010,01,22,11,18,7.70
2010,01,22,11,19,7.70
2010,01,22,11,20,7.80
2010,01,22,11,21,7.80
2010,01,22,11,22,7.80
2010,01,22,11,23,7.90
2010,01,22,11,24,7.90
2010,01,22,11,25,7.90
2010,01,22,11,26,8.00
2010,01,22,11,27,8.00
2010,01,22,11,28,8.10
2010,01,22,11,29,8.10
2010,01,22,11,30,8.10
2010,01,22,11,31,8.20
2010,01,22,11,32,8.20
2010,01,22,11,33,8.30
2010,01,22,11,34,8.30
2010,01,22,11,35,8.30
2010,01,22,11,36,8.40
2010,01,22,11,37,8.40
2010,01,22,11,38,8.40
2010,01,22,11,39,8.50
2010,01,22,11,40,8.50
2010,01,22,11,41,8.60
2010,01,22,11,42,8.60
2010,01,22,11,43,8.60
2010,01,22,11,44,8.70
2010,01,22,11,45,8.70
2010,01,22,11,46,8.80
2010,01,22,11,47,8.80
2010,01,22,11,48,8.80
2010,01,22,11,49,8.90
2010,01,22,11,50,8.90
2010,01,22,11,51,8.90
2010,01,22,11,52,9.00
2010,01,22,11,53,9.00
2010,01,22,11,54,9.10
2010,01,22,11,55,9.10
2010,01,22,11,56,9.10
2010,01,22,11,57,9.10
2010,01,22,11,58,9.20
2010,01,22,11,59,9.20
2010,01,22,12,00,9.20
2010,01,22,12,01,9.20
2010,01,22,12,02,9.30
2010,01,22,12,03,9.30
2010,01,22,12,04,9.30
2010,01,22,12,05,9.30
2010,01,22,12,06,9.30
2010,01,22,12,07,9.40
2010,01,22,12,08,9.40
2010,01,22,12,09,9.40
2010,01,22,12,10,9.50
2010,01,22,12,11,9.50
2010,01,22,12,12,9.60
2010,01,22,12,13,9.60
2010,01,22,12,14,9.60
2010,01,22,12,15,9.60
2010,01,22,12,16,9.60
2010,01,22,12,17,9.70
2010,01,22,12,18,9.70
2010,01,22,12,19,9.70
2010,01,22,12,20,9.70
2010,01,22,12,21,9.80
2010,01,22,12,22,9.80
2010,01,22,12,23,9.80
2010,01,22,12,24,9.90
2010,01,22,12,25,9.90
2010,01,22,12,26,9.90
2010,01,22,12,27,9.90
2010,01,22,12,28,10.00
2010,01,22,12,29,10.00
2010,01,22,12,30,10.00
2010,01,22,12,31,10.00
2010,01,22,12,32,10.10
2010,01,22,12,33,10.10
2010,01,22,12,34,10.20
2010,01,22,12,35,10.20
2010,01,22,12,36,10.30
2010,01,22,12,37,10.30
2010,01,22,12,38,10.40
2010,01,22,12,39,10.40
2010,01,22,12,40,10.50
2010,01,22,12,41,10.50
2010,01,22,12,42,10.60
2010,01,22,12,43,10.60
2010,01,22,12,44,10.60
2010,01,22,12,45,10.70
2010,01,22,12,46,10.70
2010,01,22,12,47,10.60
2010,01,22,12,48,10.60
2010,01,22,12,49,10.60
2010,01,22,12,50,10.60
2010,01,22,12,51,10.60
2010,01,22,12,52,10.60
2010,01,22,12,53,10.60
2010,01,22,12,54,10.60
2010,01,22,12,55,10.60
2010,01,22,12,56,10.60
2010,01,22,12,57,10.60
2010,01,22,12,58,10.60
2010,01,22,12,59,10.50
2010,01,22,13,00,10.50
2010,01,22,13,01,10.50
2010,01,22,13,02,10.50
2010,01,22,13,03,10.40
2010,01,22,13,04,10.40
2010,01,22,13,05,10.40
2010,01,22,13,06,10.50
2010,01,22,13,07,10.50
2010,01,22,13,08,10.50
2010,01,22,13,09,10.50
2010,01,22,13,10,10.50
2010,01,22,13,11,10.60
2010,01,22,13,12,10.60
2010,01,22,13,13,10.60
2010,01,22,13,14,10.70
2010,01,22,13,15,10.70
2010,01,22,13,16,10.80
2010,01,22,13,17,10.80
2010,01,22,13,18,10.80
2010,01,22,13,19,10.80
2010,01,22,13,20,10.90
2010,01,22,13,21,10.90
2010,01,22,13,22,10.90
2010,01,22,13,23,10.90
2010,01,22,13,24,11.00
2010,01,22,13,25,11.00
2010,01,22,13,26,11.00
2010,01,22,13,27,11.10
2010,01,22,13,28,11.10
2010,01,22,13,29,11.10
2010,01,22,13,30,11.10
2010,01,22,13,31,11.10
2010,01,22,13,32,11.10
2010,01,22,13,33,11.10
2010,01,22,13,34,11.20
2010,01,22,13,35,11.20
2010,01,22,13,36,11.20
2010,01,22,13,37,11.20
2010,01,22,13,38,11.30
2010,01,22,13,39,11.30
2010,01,22,13,40,11.20
2010,01,22,13,41,11.20
2010,01,22,13,42,11.20
2010,01,22,13,43,11.20
2010,01,22,13,44,11.10
2010,01,22,13,45,11.20
2010,01,22,13,46,11.20
2010,01,22,13,47,11.20
2010,01,22,13,48,11.30
2010,01,22,13,49,11.30
2010,01,22,13,50,11.30
2010,01,22,13,51,11.30
2010,01,22,13,52,11.30
2010,01,22,13,53,11.40
2010,01,22,13,54,11.40
2010,01,22,13,55,11.40
2010,01,22,13,56,11.40
2010,01,22,13,57,11.40
2010,01,22,13,58,11.40
2010,01,22,13,59,11.30
2010,01,22,14,00,11.30
2010,01,22,14,01,11.30
2010,01,22,14,02,11.30
2010,01,22,14,03,11.20
2010,01,22,14,04,11.20
2010,01,22,14,05,11.20
2010,01,22,14,06,11.10
2010,01,22,14,07,11.10
2010,01,22,14,08,11.10
2010,01,22,14,09,11.00
2010,01,22,14,10,11.00
2010,01,22,14,11,10.90
2010,01,22,14,12,10.90
2010,01,22,14,13,10.90
2010,01,22,14,14,10.90
2010,01,22,14,15,10.80
2010,01,22,14,16,10.80
2010,01,22,14,17,10.80
2010,01,22,14,18,10.70
2010,01,22,14,19,10.70
2010,01,22,14,20,10.70
2010,01,22,14,21,10.60
2010,01,22,14,22,10.60
2010,01,22,14,23,10.60
2010,01,22,14,24,10.60
2010,01,22,14,25,10.60
2010,01,22,14,26,10.70
2010,01,22,14,27,10.70
2010,01,22,14,28,10.70
2010,01,22,14,29,10.70
2010,01,22,14,30,10.70
2010,01,22,14,31,10.70
2010,01,22,14,32,10.70
2010,01,22,14,33,10.70
2010,01,22,14,34,10.70
2010,01,22,14,35,10.70
2010,01,22,14,36,10.70
2010,01,22,14,37,10.80
2010,01,22,14,38,10.80
2010,01,22,14,39,10.80
2010,01,22,14,40,10.80
2010,01,22,14,41,10.80
2010,01,22,14,42,10.80
2010,01,22,14,43,10.90
2010,01,22,14,44,10.90
2010,01,22,14,45,10.90
2010,01,22,14,46,10.90
2010,01,22,14,47,10.90
2010,01,22,14,48,10.80
2010,01,22,14,49,10.80
2010,01,22,14,50,10.80
2010,01,22,14,51,10.70
2010,01,22,14,52,10.60
2010,01,22,14,53,10.50
2010,01,22,14,54,10.50
2010,01,22,14,55,10.40
2010,01,22,14,56,10.40
2010,01,22,14,57,10.40
2010,01,22,14,58,10.40
2010,01,22,14,59,10.30
2010,01,22,15,00,10.30
2010,01,22,15,01,10.30
2010,01,22,15,02,10.30
2010,01,22,15,03,10.30
2010,01,22,15,04,10.30
2010,01,22,15,05,10.30
2010,01,22,15,06,10.20
2010,01,22,15,07,10.20
2010,01,22,15,08,10.20
2010,01,22,15,09,10.10
2010,01,22,15,10,10.10
2010,01,22,15,11,10.10
2010,01,22,15,12,10.00
2010,01,22,15,13,9.90
2010,01,22,15,14,9.90
2010,01,22,15,15,9.80
2010,01,22,15,16,9.80
2010,01,22,15,17,9.70
2010,01,22,15,18,9.70
2010,01,22,15,19,9.70
2010,01,22,15,20,9.60
2010,01,22,15,21,9.60
2010,01,22,15,22,9.60
2010,01,22,15,23,9.60
2010,01,22,15,24,9.50
2010,01,22,15,25,9.50
2010,01,22,15,26,9.50
2010,01,22,15,27,9.40
2010,01,22,15,28,9.40
2010,01,22,15,29,9.30
2010,01,22,15,30,9.30
2010,01,22,15,31,9.30
2010,01,22,15,32,9.30
2010,01,22,15,33,9.20
2010,01,22,15,34,9.20
2010,01,22,15,35,9.10
2010,01,22,15,36,9.10
2010,01,22,15,37,9.00
2010,01,22,15,38,8.90
2010,01,22,15,39,8.90
2010,01,22,15,40,8.80
2010,01,22,15,41,8.70
2010,01,22,15,42,8.60
2010,01,22,15,43,8.60
2010,01,22,15,44,8.50
2010,01,22,15,45,8.40
2010,01,22,15,46,8.30
2010,01,22,15,47,8.20
2010,01,22,15,48,8.10
2010,01,22,15,49,8.00
2010,01,22,15,50,7.90
2010,01,22,15,51,7.90
2010,01,22,15,52,7.80
2010,01,22,15,53,7.80
2010,01,22,15,54,7.70
2010,01,22,15,55,7.70
2010,01,22,15,56,7.60
2010,01,22,15,57,7.50
2010,01,22,15,58,7.50
2010,01,22,15,59,7.40
2010,01,22,16,00,7.30
2010,01,22,16,01,7.30
2010,01,22,16,02,7.20
2010,01,22,16,03,7.20
2010,01,22,16,04,7.10
2010,01,22,16,05,7.00
2010,01,22,16,06,6.90
2010,01,22,16,07,6.90
2010,01,22,16,08,6.80
2010,01,22,16,09,6.80
2010,01,22,16,10,6.70
2010,01,22,16,11,6.70
2010,01,22,16,12,6.70
2010,01,22,16,13,6.60
2010,01,22,16,14,6.60
2010,01,22,16,15,6.50
2010,01,22,16,16,6.50
2010,01,22,16,17,6.50
2010,01,22,16,18,6.40
2010,01,22,16,19,6.40
2010,01,22,16,20,6.40
2010,01,22,16,21,6.30
2010,01,22,16,22,6.30
2010,01,22,16,23,6.30
2010,01,22,16,24,6.20
2010,01,22,16,25,6.20
2010,01,22,16,26,6.20
2010,01,22,16,27,6.10
2010,01,22,16,28,6.00
2010,01,22,16,29,6.00
2010,01,22,16,30,5.90
2010,01,22,16,31,5.90
2010,01,22,16,32,5.80
2010,01,22,16,33,5.80
2010,01,22,16,34,5.70
2010,01,22,16,35,5.70
2010,01,22,16,36,5.60
2010,01,22,16,37,5.60
2010,01,22,16,38,5.60
2010,01,22,16,39,5.50
2010,01,22,16,40,5.50
2010,01,22,16,41,5.40
2010,01,22,16,42,5.40
2010,01,22,16,43,5.40
2010,01,22,16,44,5.30
2010,01,22,16,45,5.30
2010,01,22,16,46,5.20
2010,01,22,16,47,5.20
2010,01,22,16,48,5.20
2010,01,22,16,49,5.10
2010,01,22,16,50,5.10
2010,01,22,16,51,5.10
2010,01,22,16,52,5.00
2010,01,22,16,53,5.00
2010,01,22,16,54,4.90
2010,01,22,16,55,4.90
2010,01,22,16,56,4.80
2010,01,22,16,57,4.80
2010,01,22,16,58,4.80
2010,01,22,16,59,4.70
2010,01,22,17,00,4.70
2010,01,22,17,01,4.60
2010,01,22,17,02,4.60
2010,01,22,17,03,4.60
2010,01,22,17,04,4.50
2010,01,22,17,05,4.50
2010,01,22,17,06,4.40
2010,01,22,17,07,4.40
2010,01,22,17,08,4.40
2010,01,22,17,09,4.30
2010,01,22,17,10,4.30
2010,01,22,17,11,4.30
2010,01,22,17,12,4.20
2010,01,22,17,13,4.20
2010,01,22,17,14,4.10
2010,01,22,17,15,4.10
2010,01,22,17,16,4.10
2010,01,22,17,17,4.10
2010,01,22,17,18,4.00
2010,01,22,17,19,4.00
2010,01,22,17,20,4.00
2010,01,22,17,21,3.90
2010,01,22,17,22,3.90
2010,01,22,17,23,3.90
2010,01,22,17,24,3.90
2010,01,22,17,25,3.80
2010,01,22,17,26,3.80
2010,01,22,17,27,3.80
2010,01,22,17,28,3.80
2010,01,22,17,29,3.80
2010,01,22,17,30,3.70
2010,01,22,17,31,3.70
2010,01,22,17,32,3.70
2010,01,22,17,33,3.60
2010,01,22,17,34,3.60
2010,01,22,17,35,3.60
2010,01,22,17,36,3.60
2010,01,22,17,37,3.60
2010,01,22,17,38,3.50
2010,01,22,17,39,3.50
2010,01,22,17,40,3.50
2010,01,22,17,41,3.50
2010,01,22,17,42,3.50
2010,01,22,17,43,3.40
2010,01,22,17,44,3.40
2010,01,22,17,45,3.40
2010,01,22,17,46,3.40
2010,01,22,17,47,3.40
2010,01,22,17,48,3.30
2010,01,22,17,49,3.30
2010,01,22,17,50,3.30
2010,01,22,17,51,3.20
2010,01,22,17,52,3.20
2010,01,22,17,53,3.20
2010,01,22,17,54,3.10
2010,01,22,17,55,3.10
2010,01,22,17,56,3.00
2010,01,22,17,57,2.90
2010,01,22,17,58,2.90
2010,01,22,17,59,2.90